Location: Musselshell
(46.5176°N, 108.0911°W)
Time: 07:15:29
(UTC+00:00)

CUTE 1.7 + AOD 2 - Visible Passes

Search period start: 25 June 2022 00:00
Search period end: 05 July 2022 00:00
Orbit: 591 x 607 km, 97.7° (Epoch: 24 June)

Date Brightness Start Highest point End Pass type
(mag) Time Alt. Az. Time Alt. Az. Time Alt. Az.
29 Jun ? 09:51:56 10° ENE 09:53:38 12° E 09:55:20 10° ESE visible
30 Jun ? 10:01:58 10° NE 10:04:34 16° E 10:07:08 10° SE visible
01 Jul ? 10:12:20 10° NE 10:15:28 20° E 10:18:35 10° SE visible
02 Jul ? 10:22:49 10° NE 10:26:22 26° E 10:29:51 10° SSE visible
03 Jul ? 10:33:24 10° NNE 10:37:14 33° E 10:41:01 10° SSE visible
04 Jul ? 10:44:03 10° NNE 10:48:04 43° E 10:52:02 10° S visible
